VK1ET-13 Weather Reports


time (UTC)temp
C
wind
direction
speed
KPH
gust
KPH
rain 1hr
cm
rain 24hr
cm
rain mn
cm
humidity
%
barometer
mb
20260904154525 10 316 4.8 12.9 0.00 0.00 0.00 85 1016.9
20260904153531 10 335 1.6 4.8 0.00 0.00 0.00 86 1016.5
20260904152518 10 344 4.8 9.7 0.00 0.00 0.00 85 1017.0
20260904151524 11 327 4.8 11.3 0.00 0.00 0.00 83 1017.1
20260904150532 11 321 8.0 16.1 0.00 0.00 0.00 83 1017.0
20260904145521 11 321 8.0 17.7 0.00 0.00 0.00 84 1017.3
20260904144530 10 319 6.4 14.5 0.00 0.00 0.00 84 1017.2
20260904143517 10 325 8.0 12.9 0.00 0.00 0.00 84 1017.1
20260904142524 10 328 9.7 19.3 0.00 0.00 0.00 85 1017.3
20260904141530 10 314 8.0 17.7 0.00 0.00 0.00 85 1017.4
20260904140517 10 310 8.0 16.1 0.00 0.00 0.00 86 1017.4
20260904135524 10 311 11.3 16.1 0.00 0.00 0.00 86 1017.5
20260904134538 10 312 6.4 11.3 0.00 0.00 0.00 86 1017.5
20260904133537 10 319 6.4 11.3 0.00 0.00 0.00 85 1017.6
20260904132523 11 300 6.4 12.9 0.00 0.00 0.00 85 1017.7
20260904131530 11 331 6.4 17.7 0.00 0.00 0.00 85 1017.7
20260904130536 11 307 6.4 11.3 0.00 0.00 0.00 85 1018.1
20260904125528 11 308 6.4 12.9 0.00 0.00 0.00 85 1018.3
20260904124528 11 308 6.4 11.3 0.00 0.00 0.00 85 1018.5
20260904123541 11 311 6.4 14.5 0.00 0.00 0.00 84 1018.6
20260904122518 11 299 6.4 12.9 0.00 0.00 0.00 84 1018.7
20260904121525 11 303 6.4 11.3 0.00 0.00 0.00 84 1019.0
20260904120533 11 312 6.4 12.9 0.00 0.00 0.00 82 1018.9
20260904115519 11 302 6.4 11.3 0.00 0.00 0.00 82 1019.0
20260904114525 11 297 6.4 12.9 0.00 0.00 0.00 81 1019.1
20260904113531 12 292 6.4 12.9 0.00 0.00 0.00 81 1019.1
20260904112518 12 301 6.4 12.9 0.00 0.00 0.00 80 1019.3
20260904111525 12 296 8.0 14.5 0.00 0.00 0.00 79 1019.4
20260904110532 12 300 9.7 17.7 0.00 0.00 0.00 80 1019.4
20260904105518 12 296 8.0 14.5 0.00 0.00 0.00 80 1019.5
20260904104525 12 301 9.7 17.7 0.00 0.00 0.00 80 1019.5
20260904103531 12 305 8.0 14.5 0.00 0.00 0.00 80 1019.5
20260904102518 12 307 9.7 16.1 0.00 0.00 0.00 79 1019.5
20260904101536 12 314 11.3 17.7 0.00 0.00 0.00 79 1019.4
20260904100532 12 308 9.7 17.7 0.00 0.00 0.00 79 1019.3
20260904095518 12 309 9.7 19.3 0.00 0.00 0.00 78 1019.2
20260904094525 12 313 11.3 20.9 0.00 0.00 0.00 78 1019.1
20260904093531 12 304 8.0 17.7 0.00 0.00 0.00 77 1019.3
20260904092516 12 307 8.0 16.1 0.00 0.00 0.00 77 1019.2
20260904091523 12 318 8.0 14.5 0.00 0.00 0.00 76 1019.2
20260904090530 12 305 8.0 16.1 0.00 0.00 0.00 75 1019.4
20260904085517 12 306 8.0 14.5 0.00 0.00 0.00 72 1019.3
20260904084524 12 292 8.0 19.3 0.00 0.00 0.00 72 1019.3
20260904083530 12 303 11.3 22.5 0.00 0.00 0.00 71 1019.2
20260904082516 12 291 8.0 19.3 0.00 0.00 0.00 71 1019.2
20260904081531 13 291 9.7 17.7 0.00 0.00 0.00 69 1019.0
20260904080528 13 278 8.0 14.5 0.00 0.00 0.00 70 1019.0
20260904075535 13 297 9.7 17.7 0.00 0.00 0.00 69 1019.0
20260904074519 13 275 9.7 12.9 0.00 0.00 0.00 68 1018.8
20260904073524 13 287 9.7 20.9 0.00 0.00 0.00 66 1018.9
20260904072529 13 280 11.3 25.7 0.00 0.00 0.00 65 1018.8
20260904071535 13 283 8.0 14.5 0.00 0.00 0.00 64 1018.7
20260904070523 14 281 9.7 17.7 0.00 0.00 0.00 64 1018.5
20260904065542 14 284 9.7 17.7 0.00 0.00 0.00 63 1018.3
20260904064535 14 277 9.7 14.5 0.00 0.00 0.00 62 1018.3
20260904063519 14 259 6.4 12.9 0.00 0.00 0.00 62 1018.4
20260904062528 14 270 12.9 24.1 0.00 0.00 0.00 61 1018.2
20260904061532 15 274 8.0 16.1 0.00 0.00 0.00 60 1018.1
20260904060518 14 272 9.7 20.9 0.00 0.00 0.00 59 1018.2
20260904055524 14 280 8.0 19.3 0.00 0.00 0.00 59 1018.3
20260904054530 14 290 9.7 19.3 0.00 0.00 0.00 58 1018.2
20260904053516 15 279 11.3 20.9 0.00 0.00 0.00 57 1018.2
20260904052523 15 261 12.9 19.3 0.00 0.00 0.00 56 1018.2
20260904051529 15 262 12.9 27.4 0.00 0.00 0.00 56 1018.4
20260904050516 15 275 16.1 30.6 0.00 0.00 0.00 54 1018.2
20260904045523 15 264 9.7 22.5 0.00 0.00 0.00 52 1018.2
20260904044531 15 261 12.9 24.1 0.00 0.00 0.00 50 1018.3
20260904043517 16 299 16.1 27.4 0.00 0.00 0.00 50 1018.3
20260904042522 15 280 14.5 27.4 0.00 0.00 0.00 51 1018.4
20260904041529 15 272 11.3 20.9 0.00 0.00 0.00 52 1018.3
20260904040535 15 293 12.9 24.1 0.00 0.00 0.00 51 1018.2
20260904035521 15 258 11.3 17.7 0.00 0.00 0.00 51 1018.2
20260904034528 16 289 11.3 24.1 0.00 0.00 0.00 50 1018.4
20260904033533 15 285 12.9 20.9 0.00 0.00 0.00 51 1018.2
20260904032530 15 307 12.9 20.9 0.00 0.00 0.00 50 1018.4
20260904031521 15 296 9.7 16.1 0.00 0.00 0.00 51 1018.6
20260904030536 15 300 12.9 22.5 0.00 0.00 0.00 49 1018.6
20260904025533 15 239 8.0 16.1 0.00 0.00 0.00 50 1019.0
20260904024519 14 270 6.4 12.9 0.00 0.00 0.00 54 1019.2
20260904023524 15 247 8.0 14.5 0.00 0.00 0.00 54 1019.7
20260904022530 15 272 12.9 24.1 0.00 0.00 0.00 52 1020.0
20260904021517 15 278 11.3 25.7 0.00 0.00 0.00 54 1020.0
20260904020531 15 262 9.7 20.9 0.00 0.00 0.00 56 1020.3
20260904015531 15 241 9.7 20.9 0.00 0.00 0.00 57 1020.4
20260904014517 14 290 14.5 22.5 0.00 0.00 0.00 57 1020.7
20260904013524 14 274 11.3 22.5 0.00 0.00 0.00 59 1020.7
20260904012530 14 303 14.5 27.4 0.00 0.00 0.00 57 1020.5
20260904011516 14 306 9.7 19.3 0.00 0.00 0.00 58 1020.7
20260904010523 14 261 6.4 12.9 0.00 0.00 0.00 55 1020.7
20260904005531 14 269 9.7 17.7 0.00 0.00 0.00 54 1020.7
20260904004535 14 291 9.7 20.9 0.00 0.00 0.00 64 1020.7
20260904003521 13 333 6.4 14.5 0.00 0.00 0.00 71 1020.8
20260904002528 13 315 9.7 17.7 0.00 0.00 0.00 65 1021.0
20260904001535 13 316 8.0 12.9 0.00 0.00 0.00 69 1021.0
20260904000521 12 329 3.2 11.3 0.00 0.00 0.00 74 1021.2
20260903235529 11 332 6.4 11.3 0.00 0.00 0.00 79 1021.6
20260903234534 11 322 6.4 11.3 0.00 0.00 0.00 82 1021.7
20260903233526 11 321 6.4 16.1 0.00 0.00 0.00 84 1021.9
20260903232534 11 320 11.3 16.1 0.00 0.00 0.00 85 1021.8
20260903231533 11 348 6.4 11.3 0.00 0.00 0.00 86 1021.7
20260903230518 11 328 8.0 17.7 0.00 0.00 0.00 85 1021.7
20260903225523 10 335 8.0 14.5 0.00 0.00 0.00 87 1021.8
20260903224529 10 327 8.0 14.5 0.00 0.00 0.00 88 1021.6
20260903223524 9 306 4.8 11.3 0.00 0.00 0.00 90 1021.6
20260903222529 10 308 6.4 9.7 0.00 0.00 0.00 88 1021.7
20260903221535 9 296 6.4 12.9 0.00 0.00 0.00 88 1021.5
20260903220520 10 305 6.4 12.9 0.00 0.00 0.00 87 1021.5
20260903215528 9 349 1.6 4.8 0.00 0.00 0.00 88 1021.2
20260903214533 10 330 4.8 9.7 0.00 0.00 0.00 87 1020.7
20260903213519 9 7 3.2 6.4 0.00 0.00 0.00 90 1020.4
20260903212523 8 10 3.2 6.4 0.00 0.00 0.00 92 1020.7
20260903211529 9 24 3.2 6.4 0.00 0.00 0.00 93 1020.5
20260903210536 9 13 1.6 1.6 0.00 0.00 0.00 93 1020.3
20260903205529 9 335 1.6 4.8 0.00 0.00 0.00 93 1020.3
20260903205020 9 332 1.6 4.8 0.00 0.00 0.00 93 1020.1
20260903204535 9 345 1.6 4.8 0.00 0.00 0.00 94 1020.0
20260903203520 8 355 1.6 4.8 0.00 0.00 0.00 94 1020.2
20260903202527 8 17 1.6 4.8 0.00 0.00 0.00 94 1020.1
20260903201534 8 199 0.0 3.2 0.00 0.00 0.00 94 1019.9
20260903201018 8 16 1.6 4.8 0.00 0.00 0.00 93 1019.9
20260903200024 8 19 3.2 4.8 0.00 0.00 0.00 93 1020.0
20260903195521 8 360 1.6 4.8 0.00 0.00 0.00 93 1020.0
20260903194535 8 349 3.2 4.8 0.00 0.00 0.00 93 1019.9
20260903194033 8 354 3.2 4.8 0.00 0.00 0.00 93 1019.7
20260903193019 8 3 3.2 6.4 0.00 0.00 0.00 93 1019.6
20260903192027 8 12 3.2 4.8 0.00 0.00 0.00 93 1019.6
20260903191033 8 7 1.6 4.8 0.00 0.00 0.00 93 1019.5